sat.trackr.live / text

‹ back to catalog

FFLY01

NORAD 65320 · 2025-188F

PAYLOAD ACTIVE UNKNOWN

§ Identity

Operator
Country
IND
Launch date
2025-08-26
Launch site
AFWTR
Launch vehicle
Mass (kg)
RCS (m²)

External: N2YO · Heavens-Above · Gunter

§ Orbital elements

Epoch: 2026-09-20T23:02:18.919680Z

Period
96.46 min
Inclination
97.7303°
Eccentricity
0.0008893
Mean motion
14.92841822 rev/d
Perigee alt
582.9 km
Apogee alt
595.3 km
Semi-major
6,967.2 km
B*
9.0325e-5
RAAN
337.5463°
Arg perigee
209.0486°
Mean anomaly
151.0240°
Rev number
5,819

§ Raw data

FFLY011 65320U 25188F   26263.95994120  .00000879  00000+0  90325-4 0  99942 65320  97.7303 337.5463 0008893 209.0486 151.0240 14.92841822 58192

JSON: /api/v1/satellites/65320 · /tle

For live sub-satellite position, see the globe view (requires WebGL).

§ Visibility from observer

Set your observer location to see the next 7 days of passes ≥ 10°. The values pass through the URL so the page stays shareable.

No JS? Fill the form by hand. The geolocation button needs JavaScript.

§ Radio — SatNOGS DB

ModeDescriptionDownlinkUplink
FM S-band telemetry 2.243 GHz

1 transmitter · refreshed weekly from db.satnogs.org